Regional Weather Roundup
Issued by NWS

Home | Current Version | Previous Version | Graphics & Text | Print | Product List | Glossary On
Versions: 1 2 3 4 5 6 7 8 9 10 11 12 13 14 15 16 17 18 19 20 21 22 23 24 25 26 27 28 29 30 31 32 33 34 35 36 37 38 39 40 41 42 43 44 45 46 47 48 49 50
000
ASUS43 KIND 281859
RWRIN

WEATHER ROUNDUP FOR INDIANA
NATIONAL WEATHER SERVICE INDIANAPOLIS IN
200 PM EST WED JAN 28 2015

NOTE: "FAIR" INDICATES FEW OR NO CLOUDS BELOW 12,000 FEET WITH NO
SIGNIFICANT WEATHER AND/OR OBSTRUCTIONS TO VISIBILITY.

* - STATION DOES NOT REPORT WEATHER SUCH AS PRECIPITATION OR FOG.

+ - STATION NOT QUALITY CONTROLLED BY THE NATIONAL WEATHER SERVICE.
    USE DATA WITH CAUTION...ESPECIALLY DEWPOINT AND RELATIVE
    HUMIDITY OBSERVATIONS.

INZ001>003-010>013-019-020-282000-
NORTHWEST INDIANA

CITY           SKY/WX    TMP DP  RH WIND       PRES   REMARKS
GARY /AIRPORT/ PTSUNNY   34  14  44 S9        30.19F WCI  26
VALPARAISO     NOT AVBL

$$

LMZ046-743>745-282000-
SOUTHERN LAKE MICHIGAN

STATION/POSITION TIME  TEMP WIND        PRES
                       AIR  DIR/SP/G
                 (UTC) (F)  (DEG/KT/KT) (MB)
MICHIGAN CITY    1800   29  150/ 12/ 15   N/A

$$

INZ004-005-014>016-021>024-282000-
NORTH CENTRAL INDIANA

CITY           SKY/WX    TMP DP  RH WIND       PRES   REMARKS
ELKHART        SUNNY     30   5  34 S10       30.25F WCI  21
GOSHEN         MOSUNNY   30  11  45 SE14      30.24F WCI  19
SOUTH BEND     MOSUNNY   30  14  51 SE16      30.22F WCI  19

$$

INZ006>009-017-018-025>027-282000-
NORTHEAST INDIANA

CITY           SKY/WX    TMP DP  RH WIND       PRES   REMARKS
ANGOLA *+      SUNNY     25  10  54 S10       30.26F WCI  15
FORT WAYNE     PTSUNNY   25  14  63 SE8       30.28F WCI  16

$$

INZ028-029-035-036-043>045-051>053-282000-
WEST CENTRAL INDIANA

CITY           SKY/WX    TMP DP  RH WIND       PRES   REMARKS
GREENCASTLE +  SUNNY     34  14  44 SE12      30.24F WCI  25
LAFAYETTE      MOSUNNY   34  19  54 SE14      30.21F WCI  25
TERRE HAUTE    SUNNY     35  20  54 SE12      30.23F WCI  27

$$

INZ030>032-037>040-046>048-054>057-064-065-282000-
CENTRAL INDIANA

CITY           SKY/WX    TMP DP  RH WIND       PRES   REMARKS
ANDERSON       SUNNY     30  16  55 NE12G17   30.27F WCI  21
COLUMBUS       MOSUNNY   34   9  35 S14       30.28F WCI  24
INDIANAPOLIS   PTSUNNY   32  14  47 S12       30.25F WCI  23
-EAGLE CREEK   SUNNY     34  16  47 SE9       30.24F WCI  27
KOKOMO *+      SUNNY     30  19  64 S13       30.25F WCI  20
MT COMFORT *+  SUNNY     34  10  37 S13G18    30.25F WCI  25
SHELBYVILLE    SUNNY     34  20  56 S9        30.27F WCI  27

$$

INZ033-034-041-042-049-050-058-059-282000-
EAST CENTRAL INDIANA

CITY           SKY/WX    TMP DP  RH WIND       PRES   REMARKS
MUNCIE         MOSUNNY   29  13  51 S12       30.25F WCI  19

$$

INZ060-061-067>069-081>083-085>088-282000-
SOUTHWEST INDIANA

CITY           SKY/WX    TMP DP  RH WIND       PRES   REMARKS
EVANSVILLE     SUNNY     39  21  48 SE10      30.26F
HUNTINGBURG *+ SUNNY     37  18  44 SE12      30.26F

$$

INZ062-063-066-070>080-084-089>092-282000-
SOUTH CENTRAL AND SOUTHEAST INDIANA

CITY           SKY/WX    TMP DP  RH WIND       PRES   REMARKS
BLOOMINGTON    SUNNY     35  16  45 S9        30.24F WCI  28
SEYMOUR +      SUNNY     37  19  48 SE10G16   30.29F

$$



USA.gov is the U.S. government's official web portal to all federal, state and local government web resources and services.